When you browse on this site, cookies collect data to enhance your experience and personalize the content and advertising you see.
Visit our Privacy Policy to learn more. By continuing to use the site, you agree to this use of cookies and data.
  • In Austria
  • List of Countries
  • For 7 days
  • Water Temperature
  • Weather Map
  • News
  • Weather Widgets
  • user-avatar
    Login

    Hourly Weather Dedovka

    Today, 6 June, Saturday

    Time Temperature Precipitation Wind Pressure Humidity
    00:00 +16°C° 0 mm 3 mps 741 mmHg 94%
    01:00 +16°C° 0 mm 3 mps 741 mmHg 95%
    02:00 +14°C° 0 mm 3 mps 742 mmHg 96%
    03:00 +16°C° 0.2 mm 2 mps 742 mmHg 96%
    04:00 +16°C° 0.2 mm 2 mps 742 mmHg 97%
    05:00 +16°C° 0.2 mm 2 mps 742 mmHg 97%
    06:00 +17°C° 0.1 mm 3 mps 742 mmHg 95%
    07:00 +18°C° 0.1 mm 3 mps 743 mmHg 92%
    08:00 +19°C° 0 mm 4 mps 743 mmHg 90%
    09:00 +20°C° 0.1 mm 4 mps 744 mmHg 84%
    10:00 +21°C° 0.1 mm 4 mps 744 mmHg 78%
    11:00 +22°C° 0.1 mm 4 mps 744 mmHg 71%
    12:00 +23°C° 0 mm 4 mps 745 mmHg 67%
    13:00 +25°C° 0 mm 4 mps 745 mmHg 63%
    14:00 +25°C° 0 mm 4 mps 745 mmHg 59%
    15:00 +25°C° 0 mm 4 mps 745 mmHg 61%
    16:00 +25°C° 0 mm 4 mps 745 mmHg 62%
    17:00 +23°C° 0 mm 4 mps 746 mmHg 63%
    18:00 +21°C° 0 mm 3 mps 746 mmHg 70%
    19:00 +20°C° 0 mm 2 mps 746 mmHg 77%
    20:00 +19°C° 0 mm 1 mps 747 mmHg 83%
    21:00 +18°C° 0 mm 1 mps 747 mmHg 84%
    22:00 +16°C° 0 mm 1 mps 747 mmHg 86%
    23:00 +15°C° 0 mm 1 mps 748 mmHg 87%

    Tomorrow, 7 June, Sunday

    Time Temperature Precipitation Wind Pressure Humidity
    00:00 +15°C° 0 mm 1 mps 748 mmHg 87%
    01:00 +15°C° 0 mm 1 mps 748 mmHg 87%
    02:00 +15°C° 0 mm 2 mps 748 mmHg 87%
    03:00 +15°C° 0.3 mm 2 mps 748 mmHg 90%
    04:00 +15°C° 0.3 mm 2 mps 748 mmHg 92%
    05:00 +16°C° 0.3 mm 2 mps 748 mmHg 94%
    06:00 +17°C° 0.1 mm 3 mps 748 mmHg 93%
    07:00 +18°C° 0.1 mm 3 mps 748 mmHg 91%
    08:00 +19°C° 0.1 mm 4 mps 748 mmHg 89%
    09:00 +20°C° 0.1 mm 4 mps 748 mmHg 86%
    10:00 +22°C° 0.1 mm 4 mps 748 mmHg 83%
    11:00 +23°C° 0.1 mm 4 mps 748 mmHg 80%
    12:00 +26°C° 0 mm 4 mps 748 mmHg 73%
    13:00 +27°C° 0 mm 5 mps 748 mmHg 66%
    14:00 +29°C° 0 mm 5 mps 748 mmHg 59%
    15:00 +29°C° 0.1 mm 4 mps 748 mmHg 59%
    16:00 +28°C° 0.1 mm 4 mps 747 mmHg 60%
    17:00 +28°C° 0.1 mm 4 mps 747 mmHg 60%
    18:00 +26°C° 0 mm 4 mps 747 mmHg 66%
    19:00 +24°C° 0 mm 3 mps 747 mmHg 72%
    20:00 +21°C° 0 mm 3 mps 747 mmHg 79%
    21:00 +20°C° 0 mm 3 mps 747 mmHg 82%
    22:00 +19°C° 0 mm 3 mps 747 mmHg 86%
    23:00 +18°C° 0 mm 3 mps 748 mmHg 90%

    Day after tomorrow, 8 June, Monday

    Time Temperature Precipitation Wind Pressure Humidity
    00:00 +18°C° 0 mm 3 mps 748 mmHg 92%
    01:00 +18°C° 0 mm 3 mps 748 mmHg 94%
    02:00 +17°C° 0 mm 3 mps 748 mmHg 95%
    03:00 +17°C° 0 mm 3 mps 748 mmHg 94%
    04:00 +17°C° 0 mm 3 mps 747 mmHg 93%
    05:00 +17°C° 0 mm 3 mps 747 mmHg 91%
    06:00 +19°C° 0 mm 4 mps 748 mmHg 85%
    07:00 +21°C° 0 mm 4 mps 748 mmHg 79%
    08:00 +23°C° 0 mm 4 mps 748 mmHg 73%
    09:00 +25°C° 0 mm 4 mps 748 mmHg 67%
    10:00 +27°C° 0 mm 4 mps 748 mmHg 60%
    11:00 +29°C° 0 mm 4 mps 748 mmHg 54%
    12:00 +29°C° 0 mm 4 mps 748 mmHg 52%
    13:00 +29°C° 0 mm 4 mps 748 mmHg 51%
    14:00 +29°C° 0 mm 4 mps 748 mmHg 49%
    15:00 +29°C° 0 mm 4 mps 747 mmHg 53%
    16:00 +29°C° 0 mm 4 mps 747 mmHg 57%
    17:00 +28°C° 0 mm 4 mps 747 mmHg 61%
    18:00 +27°C° 0 mm 3 mps 747 mmHg 67%
    19:00 +25°C° 0 mm 3 mps 747 mmHg 73%
    20:00 +23°C° 0 mm 2 mps 747 mmHg 80%
    21:00 +21°C° 0 mm 2 mps 747 mmHg 83%
    22:00 +20°C° 0 mm 2 mps 747 mmHg 86%
    23:00 +19°C° 0 mm 2 mps 748 mmHg 90%

    9 June, Tuesday

    Time Temperature Precipitation Wind Pressure Humidity
    00:00 +19°C° 0 mm 2 mps 748 mmHg 90%
    01:00 +18°C° 0 mm 2 mps 748 mmHg 91%
    02:00 +18°C° 0 mm 2 mps 748 mmHg 92%
    03:00 +18°C° 0 mm 2 mps 748 mmHg 92%
    04:00 +18°C° 0 mm 2 mps 748 mmHg 92%
    05:00 +18°C° 0 mm 2 mps 748 mmHg 91%
    06:00 +20°C° 0 mm 3 mps 748 mmHg 87%
    07:00 +21°C° 0 mm 3 mps 748 mmHg 82%
    08:00 +24°C° 0 mm 3 mps 748 mmHg 77%
    09:00 +26°C° 0 mm 4 mps 748 mmHg 70%
    10:00 +27°C° 0 mm 4 mps 748 mmHg 63%
    11:00 +29°C° 0 mm 4 mps 748 mmHg 55%
    12:00 +29°C° 0 mm 4 mps 748 mmHg 53%
    13:00 +30°C° 0 mm 4 mps 748 mmHg 51%
    14:00 +32°C° 0 mm 4 mps 748 mmHg 49%
    15:00 +30°C° 0 mm 3 mps 748 mmHg 52%
    16:00 +30°C° 0 mm 3 mps 748 mmHg 55%
    17:00 +30°C° 0 mm 2 mps 748 mmHg 58%
    18:00 +28°C° 0.1 mm 2 mps 748 mmHg 65%
    19:00 +26°C° 0.1 mm 2 mps 748 mmHg 71%
    20:00 +24°C° 0.1 mm 2 mps 748 mmHg 78%
    21:00 +23°C° 0 mm 2 mps 748 mmHg 80%
    22:00 +21°C° 0 mm 2 mps 748 mmHg 82%
    23:00 +20°C° 0 mm 2 mps 749 mmHg 85%

    10 June, Wednesday

    Time Temperature Precipitation Wind Pressure Humidity
    00:00 +20°C° 0 mm 2 mps 749 mmHg 86%
    01:00 +19°C° 0 mm 2 mps 749 mmHg 88%
    02:00 +19°C° 0 mm 2 mps 748 mmHg 89%
    03:00 +19°C° 0 mm 2 mps 748 mmHg 90%
    04:00 +19°C° 0 mm 2 mps 749 mmHg 91%
    05:00 +19°C° 0 mm 2 mps 749 mmHg 93%
    06:00 +21°C° 0 mm 3 mps 749 mmHg 87%
    07:00 +22°C° 0 mm 3 mps 749 mmHg 81%
    08:00 +25°C° 0 mm 3 mps 749 mmHg 76%
    09:00 +27°C° 0 mm 4 mps 749 mmHg 69%
    10:00 +28°C° 0 mm 4 mps 748 mmHg 63%
    11:00 +30°C° 0 mm 4 mps 748 mmHg 56%
    12:00 +30°C° 0 mm 5 mps 748 mmHg 55%
    13:00 +32°C° 0 mm 5 mps 748 mmHg 53%
    14:00 +32°C° 0 mm 5 mps 747 mmHg 51%
    15:00 +32°C° 0.1 mm 4 mps 747 mmHg 54%
    16:00 +32°C° 0.1 mm 4 mps 747 mmHg 56%
    17:00 +30°C° 0.1 mm 3 mps 747 mmHg 59%
    18:00 +28°C° 0.2 mm 3 mps 747 mmHg 66%
    19:00 +26°C° 0.2 mm 3 mps 747 mmHg 74%
    20:00 +24°C° 0.2 mm 3 mps 747 mmHg 81%
    21:00 +22°C° 0.1 mm 3 mps 747 mmHg 84%
    22:00 +21°C° 0.1 mm 3 mps 747 mmHg 87%
    23:00 +20°C° 0.1 mm 3 mps 747 mmHg 90%

    11 June, Thursday

    Time Temperature Precipitation Wind Pressure Humidity
    00:00 +20°C° 0 mm 3 mps 747 mmHg 92%
    01:00 +20°C° 0 mm 3 mps 747 mmHg 93%
    02:00 +19°C° 0 mm 3 mps 746 mmHg 94%
    03:00 +19°C° 0 mm 3 mps 746 mmHg 94%
    04:00 +19°C° 0 mm 3 mps 746 mmHg 94%
    05:00 +19°C° 0 mm 3 mps 746 mmHg 94%
    06:00 +21°C° 0.1 mm 3 mps 746 mmHg 90%
    07:00 +22°C° 0.1 mm 3 mps 746 mmHg 87%
    08:00 +25°C° 0.1 mm 4 mps 746 mmHg 83%
    09:00 +26°C° 0.6 mm 4 mps 746 mmHg 76%
    10:00 +28°C° 0.6 mm 4 mps 746 mmHg 69%
    11:00 +29°C° 0.6 mm 4 mps 746 mmHg 63%
    12:00 +30°C° 0.1 mm 4 mps 745 mmHg 59%
    13:00 +32°C° 0.1 mm 4 mps 745 mmHg 55%
    14:00 +33°C° 0.1 mm 4 mps 745 mmHg 51%
    15:00 +32°C° 0.1 mm 4 mps 745 mmHg 53%
    16:00 +32°C° 0.1 mm 4 mps 745 mmHg 56%
    17:00 +31°C° 0.1 mm 3 mps 744 mmHg 58%
    18:00 +29°C° 0.3 mm 3 mps 744 mmHg 66%
    19:00 +27°C° 0.3 mm 3 mps 744 mmHg 74%
    20:00 +25°C° 0.3 mm 2 mps 745 mmHg 81%
    21:00 +24°C° 0.2 mm 2 mps 745 mmHg 84%
    22:00 +23°C° 0.2 mm 2 mps 745 mmHg 87%
    23:00 +21°C° 0.2 mm 2 mps 745 mmHg 90%
    Show more